Temp
74 73 73 73 72 73 72 71 69 68 68 68 67 68 67 68 69 68 67 68 67 67 66 66 66 66 64 64 64 64 63 63 63 63 64 65 66 65 66 67 66 65 65
72 68 68 69 68 69 70 70 69 68 69 69 69 69 69 68 68 66 66 66 66 65 66 64 64 64 63 63 62 61 60 63 62 58 59 58 62 64 66 65 64 64 64
69 67 66 67 67 67 69 69 69 68 68 68 66 65 64 64 63 64 65 64 65 63 62 63 63 62 62 60 60 60 59 57 61 61 58 55 54 57 63 63 64 63 62
72 68 66 66 66 66 67 68 67 66 66 66 65 65 65 64 66 65 64 63 63 62 61 61 62 61 61 60 60 61 59 58 57 60 61 60 58 52 53 62 63 63 63
69 66 65 65 66 65 64 66 66 65 65 65 66 65 64 65 65 64 62 63 62 62 61 61 61 60 60 59 59 58 58 59 58 57 56 58 59 58 54 50 56 61 62
66 66 66 65 64 64 63 63 64 64 64 64 64 64 63 63 62 62 62 62 62 62 61 60 60 60 59 59 58 58 58 57 58 58 58 56 55 54 54 52 53 53 58
63 63 62 62 62 61 62 63 63 62 64 63 63 63 63 62 62 62 62 62 61 61 61 60 59 60 59 58 58 57 57 57 56 56 56 57 57 57 55 53 51 51 55
62 61 62 62 62 62 62 63 63 63 63 63 62 63 62 62 62 62 62 61 61 61 61 60 59 59 59 58 58 57 57 57 55 55 55 55 56 57 55 52 49 46 50
61 61 61 63 63 62 62 63 62 62 62 62 62 62 62 61 61 61 61 61 61 61 60 60 59 59 59 58 57 56 56 57 55 54 54 54 55 55 55 54 52 48 43
58 59 60 61 62 63 63 62 62 62 62 62 63 62 62 61 61 61 60 60 61 60 59 59 59 58 58 58 57 55 56 55 54 54 54 53 54 54 53 52 51 50 47
58 58 59 60 60 61 61 62 61 61 61 61 61 61 60 60 60 60 60 59 59 59 58 58 58 57 57 58 57 56 56 54 54 54 54 53 54 53 53 52 51 49 49
57 57 58 59 59 59 60 60 61 61 61 60 60 59 59 59 59 59 58 59 58 59 58 57 56 57 57 57 56 55 55 54 53 53 53 52 54 51 51 50 49 48 49
55 56 57 57 57 57 57 58 58 58 59 59 58 58 57 57 57 57 57 57 56 56 57 56 56 56 56 55 55 54 53 53 52 52 51 51 51 49 49 49 48 48 50
54 55 55 55 56 56 56 56 56 57 57 57 56 55 55 55 55 56 56 56 56 55 55 55 54 54 54 53 53 52 51 51 52 51 51 50 49 48 47 47 46 47 45
52 53 53 54 55 55 55 55 55 56 56 55 54 53 54 54 54 54 54 54 54 54 54 53 53 53 52 52 50 49 48 48 48 49 50 50 49 48 48 47 45 45 44
52 52 53 53 53 54 53 53 53 53 55 53 52 52 53 53 52 52 52 51 51 51 51 50 49 48 50 50 49 48 46 46 46 46 48 49 48 48 48 48 47 45 42
51 51 52 53 53 53 54 53 53 53 52 52 52 52 52 51 50 51 51 49 49 50 49 49 49 48 48 49 48 47 46 45 45 45 46 47 50 48 48 48 48 48 47
51 52 52 52 52 53 53 53 52 52 51 50 50 50 50 49 49 49 48 48 49 48 48 48 48 47 48 48 47 47 45 44 44 45 45 45 45 46 46 45 44 44 45
53 53 54 53 52 52 51 51 51 51 50 49 48 48 48 47 47 45 46 47 47 47 46 47 46 45 46 47 46 46 44 43 43 45 46 45 45 46 46 43 40 41 42
53 51 51 51 51 50 50 48 48 48 47 46 46 47 46 45 45 45 45 45 45 45 46 45 46 46 45 46 46 46 44 41 42 44 45 46 45 46 45 42 40 37 40
50 51 50 49 49 48 47 46 46 45 46 46 45 45 45 44 45 44 44 43 43 43 43 43 44 45 45 45 46 45 43 41 40 40 41 43 45 45 44 44 40 39 42
47 48 47 47 46 46 45 44 44 46 46 45 44 44 44 45 44 41 41 41 41 40 40 40 40 42 44 44 44 44 43 42 39 38 40 41 43 43 42 42 42 42 42
43 45 45 45 46 46 45 42 43 44 43 42 42 42 43 43 43 40 39 39 40 39 38 38 37 37 40 41 42 41 41 41 40 40 40 40 40 41 41 41 42 42 39
44 45 44 44 43 45 44 43 43 43 42 40 40 41 40 40 41 41 40 38 38 37 36 35 34 34 35 36 39 37 36 37 36 37 36 38 39 39 39 39 39 38 38
43 43 42 41 41 43 42 43 42 41 38 38 38 38 39 38 38 39 39 38 39 38 35 35 34 32 31 35 37 37 35 35 36 38 36 35 35 35 35 36 36 36 36
41 40 40 40 41 41 41 41 41 40 37 35 36 37 37 37 37 36 36 40 39 40 39 39 38 37 38 38 38 39 39 39 40 36 33 32 33 32 33 33 33 33 34
MSLP
1013.09 1014.10 1014.80 1015.45 1016.01 1016.43 1017.05 1017.83 1018.50 1019.12 1019.37 1019.60 1019.71 1019.80 1019.87 1020.19 1020.40 1020.68 1020.97 1020.96 1021.07 1021.13 1021.04 1020.87 1020.81 1020.72 1020.61 1020.48 1020.34 1020.06 1019.67 1019.44 1019.36 1018.61 1018.29 1018.22 1018.35 1018.45 1018.42 1018.25 1018.26 1018.29 1018.23
1012.95 1014.37 1015.19 1015.77 1016.25 1016.63 1017.17 1017.81 1018.43 1018.98 1019.26 1019.47 1019.59 1019.74 1019.90 1020.20 1020.39 1020.91 1021.12 1021.28 1021.30 1021.43 1021.23 1021.25 1021.18 1021.15 1020.93 1020.84 1020.80 1020.63 1020.28 1019.86 1019.87 1019.54 1018.91 1018.19 1018.06 1018.12 1018.05 1018.38 1018.45 1018.51 1018.34
1012.83 1014.19 1015.10 1015.82 1016.37 1016.80 1017.29 1017.84 1018.42 1018.90 1019.31 1019.63 1019.96 1020.24 1020.51 1020.67 1020.81 1020.92 1021.09 1021.37 1021.44 1021.61 1021.65 1021.58 1021.43 1021.33 1021.19 1021.12 1021.13 1021.05 1020.77 1020.43 1020.07 1020.10 1019.85 1019.04 1018.64 1018.47 1018.01 1018.20 1018.44 1018.48 1018.34
1012.55 1013.85 1014.89 1015.71 1016.33 1017.02 1017.65 1018.12 1018.71 1019.08 1019.44 1019.77 1019.85 1019.91 1019.97 1020.06 1020.23 1020.64 1021.07 1021.38 1021.61 1021.73 1021.84 1021.73 1021.59 1021.52 1021.44 1021.42 1021.38 1021.25 1021.18 1020.91 1020.48 1020.17 1020.18 1020.16 1020.17 1019.61 1018.73 1018.23 1018.23 1018.21 1018.16
1012.76 1013.82 1014.94 1015.75 1016.44 1017.35 1018.02 1018.44 1018.86 1019.19 1019.52 1019.80 1019.88 1020.00 1020.09 1020.19 1020.51 1020.88 1021.13 1021.33 1021.58 1021.78 1021.93 1021.90 1021.77 1021.72 1021.71 1021.74 1021.70 1021.54 1021.36 1021.16 1020.91 1020.70 1020.57 1020.26 1020.00 1019.90 1019.59 1018.90 1018.39 1018.21 1018.09
1013.26 1014.20 1015.29 1016.07 1016.86 1017.64 1018.19 1018.57 1018.91 1019.25 1019.64 1019.88 1020.03 1020.11 1020.22 1020.36 1020.56 1020.77 1020.90 1021.10 1021.36 1021.52 1021.79 1021.98 1021.92 1021.92 1021.92 1021.89 1021.89 1021.81 1021.70 1021.61 1021.42 1021.26 1021.03 1020.75 1020.52 1020.27 1020.07 1019.67 1019.32 1018.98 1018.38
1014.01 1014.82 1015.69 1016.37 1017.09 1017.74 1018.21 1018.62 1018.94 1019.28 1019.58 1019.84 1020.02 1020.13 1020.28 1020.45 1020.59 1020.71 1020.84 1020.97 1021.15 1021.37 1021.50 1021.77 1021.80 1021.80 1021.91 1021.92 1021.86 1021.74 1021.57 1021.40 1021.34 1021.18 1020.94 1020.74 1020.60 1020.52 1020.37 1020.08 1019.64 1019.19 1018.73
1014.59 1015.31 1015.92 1016.53 1017.15 1017.71 1018.24 1018.56 1018.84 1019.09 1019.46 1019.71 1020.00 1020.29 1020.50 1020.61 1020.70 1020.85 1020.98 1021.10 1021.19 1021.22 1021.34 1021.47 1021.56 1021.62 1021.70 1021.73 1021.70 1021.67 1021.54 1021.49 1021.41 1021.30 1021.16 1020.92 1020.57 1020.39 1020.32 1020.16 1020.00 1019.43 1018.86
1015.13 1015.74 1016.33 1016.74 1017.19 1017.67 1018.08 1018.40 1018.70 1019.06 1019.44 1019.78 1020.04 1020.24 1020.45 1020.66 1020.71 1020.88 1020.96 1020.96 1021.03 1021.15 1021.30 1021.36 1021.43 1021.44 1021.50 1021.52 1021.52 1021.40 1021.19 1021.13 1021.13 1021.05 1020.94 1020.83 1020.62 1020.37 1020.27 1020.27 1020.18 1019.89 1019.05
1015.87 1016.35 1016.75 1017.12 1017.42 1017.74 1018.15 1018.58 1018.85 1019.07 1019.37 1019.72 1019.90 1020.14 1020.38 1020.64 1020.81 1020.98 1021.05 1021.09 1021.10 1021.14 1021.20 1021.20 1021.25 1021.32 1021.33 1021.31 1021.30 1021.25 1021.14 1020.99 1020.89 1020.75 1020.68 1020.57 1020.34 1020.18 1019.98 1019.87 1019.76 1019.70 1019.38
1016.19 1016.66 1017.10 1017.48 1017.81 1018.09 1018.41 1018.67 1019.00 1019.26 1019.57 1019.92 1020.10 1020.35 1020.60 1020.82 1020.93 1021.00 1021.08 1021.18 1021.25 1021.25 1021.31 1021.27 1021.25 1021.20 1021.14 1021.05 1021.01 1020.92 1020.82 1020.71 1020.56 1020.39 1020.16 1019.91 1019.84 1019.75 1019.62 1019.53 1019.31 1019.21 1019.11
1016.63 1017.05 1017.44 1017.80 1018.12 1018.42 1018.70 1019.00 1019.25 1019.46 1019.76 1020.11 1020.32 1020.63 1020.94 1021.06 1021.09 1021.18 1021.36 1021.32 1021.29 1021.19 1021.27 1021.28 1021.18 1021.05 1020.95 1020.87 1020.73 1020.57 1020.43 1020.23 1020.04 1019.82 1019.67 1019.49 1019.30 1019.16 1019.10 1019.04 1019.03 1018.83 1018.61
1017.11 1017.52 1017.88 1018.28 1018.64 1018.98 1019.31 1019.56 1019.81 1020.08 1020.31 1020.49 1020.77 1021.04 1021.21 1021.32 1021.48 1021.64 1021.72 1021.70 1021.63 1021.50 1021.33 1021.27 1021.20 1021.08 1020.96 1020.89 1020.78 1020.59 1020.33 1020.03 1019.74 1019.52 1019.31 1019.14 1019.05 1018.85 1018.77 1018.58 1018.45 1018.25 1018.03
1017.50 1017.96 1018.38 1018.82 1019.20 1019.49 1019.80 1020.12 1020.44 1020.73 1020.96 1021.16 1021.41 1021.63 1021.79 1021.93 1022.02 1022.07 1022.01 1021.89 1021.77 1021.63 1021.47 1021.34 1021.20 1021.07 1020.92 1020.81 1020.65 1020.43 1020.05 1019.74 1019.43 1019.16 1018.92 1018.73 1018.59 1018.47 1018.25 1018.10 1017.92 1017.69 1017.55
1017.84 1018.29 1018.69 1019.17 1019.61 1019.99 1020.39 1020.75 1021.04 1021.27 1021.47 1021.72 1022.01 1022.26 1022.36 1022.43 1022.40 1022.34 1022.26 1022.12 1021.97 1021.81 1021.61 1021.37 1021.12 1020.88 1020.64 1020.47 1020.31 1020.18 1020.02 1019.70 1019.19 1018.68 1018.31 1018.12 1017.98 1017.83 1017.69 1017.61 1017.38 1017.24 1017.06
1018.00 1018.64 1019.14 1019.57 1020.01 1020.44 1020.89 1021.26 1021.56 1021.88 1022.03 1022.23 1022.46 1022.68 1022.70 1022.64 1022.56 1022.52 1022.42 1022.26 1022.06 1021.78 1021.51 1021.21 1020.99 1020.72 1020.48 1020.21 1020.04 1019.82 1019.54 1019.15 1018.78 1018.14 1017.66 1017.28 1017.09 1016.94 1016.87 1016.84 1016.80 1016.86 1016.65
1018.21 1018.90 1019.44 1019.92 1020.39 1020.84 1021.22 1021.57 1021.98 1022.30 1022.44 1022.59 1022.65 1022.70 1022.71 1022.67 1022.55 1022.44 1022.21 1022.00 1021.77 1021.49 1021.15 1020.78 1020.45 1020.09 1019.77 1019.56 1019.39 1019.17 1018.97 1018.54 1018.07 1017.62 1017.10 1016.66 1016.28 1016.04 1015.93 1015.81 1015.66 1015.53 1015.41
1018.36 1019.02 1019.61 1020.25 1020.84 1021.31 1021.66 1022.00 1022.22 1022.42 1022.68 1022.83 1022.83 1022.81 1022.78 1022.65 1022.48 1022.24 1021.92 1021.62 1021.27 1020.86 1020.50 1020.14 1019.81 1019.35 1018.97 1018.86 1018.71 1018.51 1018.23 1017.87 1017.29 1016.81 1016.37 1016.04 1015.72 1015.53 1015.37 1015.18 1015.04 1014.78 1014.52
1018.49 1019.19 1019.78 1020.37 1021.04 1021.53 1021.97 1022.20 1022.33 1022.51 1022.76 1022.82 1022.89 1022.86 1022.77 1022.51 1022.25 1021.98 1021.64 1021.35 1020.83 1020.32 1019.93 1019.57 1019.17 1018.82 1018.34 1018.17 1017.96 1017.75 1017.53 1017.09 1016.45 1015.93 1015.59 1015.25 1014.91 1014.60 1014.66 1014.73 1014.48 1014.12 1013.64
1018.93 1019.64 1020.36 1020.89 1021.35 1022.01 1022.39 1022.60 1022.63 1022.77 1022.85 1022.96 1022.88 1022.76 1022.64 1022.44 1022.10 1021.83 1021.49 1021.09 1020.74 1020.03 1019.47 1018.80 1018.51 1018.12 1017.65 1017.36 1017.06 1016.87 1016.54 1016.15 1015.66 1015.17 1014.81 1014.43 1014.13 1013.95 1013.95 1013.98 1013.84 1013.52 1013.01
1019.64 1020.19 1020.78 1021.19 1021.84 1022.42 1022.64 1022.68 1022.79 1022.81 1022.92 1023.04 1022.95 1022.75 1022.51 1022.15 1021.81 1021.39 1021.16 1020.95 1020.50 1019.80 1019.21 1018.66 1018.09 1017.66 1017.25 1016.74 1016.32 1016.06 1015.82 1015.60 1015.19 1014.70 1014.27 1013.94 1013.68 1013.38 1013.21 1013.19 1013.07 1012.79 1012.58
1020.54 1021.02 1021.40 1021.82 1022.40 1022.70 1022.84 1022.83 1022.78 1022.83 1022.98 1022.95 1022.79 1022.52 1022.14 1021.84 1021.54 1021.27 1020.84 1020.62 1020.13 1019.49 1018.96 1018.46 1017.88 1017.40 1016.88 1016.36 1015.96 1015.56 1015.39 1015.20 1014.84 1014.35 1013.94 1013.54 1013.21 1012.95 1012.73 1012.56 1012.38 1012.11 1011.85
1021.35 1021.73 1021.94 1022.30 1022.58 1022.83 1022.98 1023.10 1022.92 1022.91 1022.85 1022.72 1022.49 1022.22 1021.94 1021.60 1021.17 1020.87 1020.44 1020.23 1019.86 1019.40 1018.87 1018.43 1017.86 1017.25 1016.82 1016.35 1015.98 1015.65 1015.18 1014.67 1014.14 1013.82 1013.47 1013.13 1012.88 1012.47 1012.12 1011.87 1011.51 1011.24 1011.02
1021.43 1021.87 1022.13 1022.28 1022.57 1022.78 1023.01 1023.10 1022.90 1022.86 1022.73 1022.53 1022.32 1022.06 1021.63 1021.08 1020.81 1020.47 1020.29 1019.97 1019.67 1019.24 1018.75 1018.37 1017.80 1017.20 1016.70 1016.16 1015.55 1015.24 1014.94 1014.50 1014.12 1013.73 1013.20 1012.67 1012.26 1011.94 1011.55 1011.12 1010.82 1010.61 1010.36
1021.83 1022.22 1022.50 1022.65 1022.70 1022.75 1022.85 1022.88 1022.86 1022.76 1022.64 1022.37 1022.13 1021.67 1021.25 1020.94 1020.54 1020.28 1019.99 1019.60 1019.35 1019.23 1018.76 1018.08 1017.60 1017.03 1016.30 1015.78 1015.41 1014.84 1014.45 1014.04 1013.58 1012.85 1012.49 1012.00 1011.56 1011.18 1010.86 1010.55 1010.30 1010.07 1009.86
1022.26 1022.42 1022.54 1022.76 1022.85 1022.84 1022.72 1022.65 1022.66 1022.64 1022.38 1022.19 1021.90 1021.62 1021.35 1020.82 1020.38 1019.86 1019.49 1019.49 1018.94 1018.57 1018.16 1017.54 1017.02 1016.31 1015.86 1015.37 1014.79 1014.27 1013.77 1013.27 1012.75 1012.20 1011.85 1011.46 1011.16 1010.88 1010.44 1010.15 1009.91 1009.78 1009.59
Wind_Speed
13 11 9 9 9 9 11 11 9 8 6 5 4 4 4 3 2 3 3 3 4 4 4 4 4 5 5 6 7 6 6 5 7 4 1 3 2 2 3 3 3 5 5
13 10 10 10 10 10 10 10 9 8 5 3 2 1 1 1 2 2 2 3 3 4 4 5 4 5 4 7 7 7 5 4 6 5 4 3 3 3 1 3 2 4 4
14 12 12 11 11 10 10 9 8 7 5 4 3 2 2 1 2 3 2 2 2 3 4 4 4 4 4 4 5 5 6 4 4 6 4 4 4 7 3 1 2 4 4
12 12 11 11 11 10 7 8 7 6 5 5 4 5 3 2 1 1 2 2 1 3 2 2 3 4 3 4 4 4 4 5 4 3 4 3 3 4 5 2 1 3 3
10 12 11 10 10 9 8 7 7 6 5 4 3 3 3 0 2 2 2 2 2 1 1 2 2 3 3 3 4 4 4 3 3 3 4 4 2 3 4 6 6 5 6
9 10 10 10 9 8 7 6 6 5 5 4 3 3 2 2 2 2 3 3 2 2 1 1 2 2 3 3 4 4 4 4 4 4 4 4 4 6 5 7 8 9 7
9 10 11 10 10 9 7 6 6 5 5 4 3 3 2 2 2 2 2 2 2 2 2 1 2 2 2 3 3 3 4 3 4 4 4 4 4 4 5 5 7 7 7
9 10 10 9 8 7 7 6 6 5 5 4 4 3 2 2 2 2 2 2 2 1 1 3 3 3 3 3 4 3 3 4 4 5 5 5 4 4 4 4 5 7 6
10 9 8 6 7 7 7 6 6 5 5 4 4 4 3 2 2 3 3 3 3 3 3 3 4 4 4 4 4 4 5 5 4 5 5 5 5 5 4 5 5 6 5
9 8 7 6 5 5 5 4 4 4 4 4 4 3 3 3 2 2 3 3 4 3 4 5 5 5 5 5 5 5 5 5 5 5 6 7 6 6 5 5 5 6 8
8 7 6 5 4 4 4 4 3 4 4 3 3 3 2 1 2 2 3 3 4 5 5 5 6 6 6 6 6 7 7 8 8 8 8 9 9 7 6 6 6 6 7
8 8 7 7 7 6 5 5 4 5 4 3 3 4 3 1 1 2 3 4 4 5 5 6 7 7 8 7 8 8 9 10 10 11 10 10 7 8 8 6 9 8 8
9 9 8 9 9 9 8 8 7 7 6 5 5 5 5 4 4 4 4 4 5 5 6 7 8 9 10 10 11 11 11 11 11 11 11 11 10 10 8 8 8 7 7
9 9 9 9 9 9 9 9 9 8 8 8 7 6 6 5 5 4 5 6 6 7 8 8 9 8 9 9 10 10 11 11 11 12 12 11 11 11 10 9 9 9 9
9 9 9 8 9 9 8 8 8 7 7 7 7 6 5 5 5 6 6 7 7 8 8 9 9 9 9 7 10 10 11 12 13 13 13 12 12 14 13 8 9 10 9
10 9 9 9 8 8 7 6 6 6 5 6 5 4 5 6 6 7 8 8 8 9 9 9 10 10 8 12 14 13 11 13 13 14 13 14 14 14 19 21 21 17 11
11 10 9 8 7 6 5 5 5 4 3 3 4 5 6 7 7 8 9 9 10 11 11 11 11 12 12 16 17 19 11 12 13 14 14 13 11 13 13 17 21 20 23
11 10 8 7 7 6 5 4 3 2 3 4 6 7 7 8 9 9 10 11 11 12 12 13 13 13 12 18 19 20 12 12 14 15 14 14 14 14 15 13 13 14 14
10 9 8 7 6 5 4 1 3 3 4 5 6 7 8 9 10 11 11 11 12 12 13 13 15 15 14 20 20 17 12 13 15 14 14 14 14 17 19 13 13 15 15
9 9 8 6 5 5 3 2 3 5 6 7 9 8 9 10 11 12 12 11 12 14 12 15 15 18 16 20 21 17 9 12 12 14 14 19 17 20 21 14 13 14 14
10 8 7 5 6 3 2 3 5 6 7 8 9 10 10 11 12 11 11 11 13 13 14 15 15 17 16 16 22 23 12 10 11 10 10 9 20 22 22 20 12 14 15
8 6 6 6 4 2 3 5 6 7 8 9 10 11 11 9 9 11 11 12 12 13 13 14 13 12 14 18 20 22 20 18 11 12 10 11 21 22 22 18 22 25 22
6 4 4 3 2 2 3 6 7 8 9 10 11 12 12 11 10 10 10 9 11 10 11 10 11 11 10 10 20 24 24 22 13 10 15 24 25 26 20 21 22 21 10
6 4 1 1 2 3 5 7 8 9 10 11 12 11 11 11 10 8 8 8 9 9 10 10 11 11 11 11 11 9 9 14 12 14 11 15 20 22 19 16 12 8 8
5 2 1 3 5 6 7 8 8 9 10 11 11 11 9 10 11 9 8 8 9 10 11 10 10 11 11 11 20 18 10 8 11 15 8 8 8 8 8 7 7 7 7
3 1 3 4 6 7 8 9 9 9 10 11 9 9 9 8 8 9 10 14 19 22 21 22 17 11 19 23 22 22 21 21 22 11 9 9 8 8 7 7 7 5 8
Wind_Direction
181 181 183 177 176 178 170 163 159 164 165 170 174 179 185 160 137 87 63 43 38 17 17 16 21 7 22 14 6 354 1 16 355 309 322 211 207 214 275 290 329 341 339
174 173 177 179 180 176 172 168 171 167 171 168 166 350 149 156 65 127 92 48 42 29 21 16 19 20 4 23 15 13 346 16 20 357 278 334 185 204 287 314 322 326 331
181 181 179 181 179 175 174 171 161 159 153 157 131 144 110 155 188 181 161 90 57 47 24 27 18 24 12 20 15 7 10 344 26 20 349 335 358 335 144 191 288 326 328
182 174 176 174 176 170 157 161 153 152 156 167 187 200 225 227 143 119 110 140 65 56 44 16 18 22 4 16 360 12 349 345 5 334 22 2 352 336 330 336 177 275 324
182 167 174 165 160 140 156 154 156 160 153 174 214 209 239 75 127 154 171 199 165 161 50 4 6 5 359 8 355 352 348 339 330 349 334 325 286 232 272 298 323 325 340
170 159 158 150 144 148 149 155 159 157 155 169 174 194 213 199 200 193 217 195 195 190 191 323 349 339 340 344 337 334 328 335 327 330 320 328 332 326 321 314 321 316 310
165 149 153 159 154 157 151 158 169 163 171 174 172 183 197 205 242 241 230 225 221 215 197 281 303 318 329 313 304 303 300 298 306 307 302 297 286 302 297 298 296 305 308
142 155 150 150 153 153 159 167 176 170 184 185 187 186 187 228 235 238 264 255 263 258 200 233 244 271 287 290 289 293 287 297 287 291 289 292 287 278 278 280 296 298 286
131 132 134 140 145 158 168 175 173 184 187 192 191 196 198 214 231 219 230 239 246 251 259 269 279 280 275 278 283 275 281 283 282 276 276 270 277 279 276 278 276 272 286
118 120 121 131 138 144 154 163 184 192 188 190 206 192 196 209 230 251 258 263 277 269 270 275 281 286 281 274 270 273 273 270 269 269 267 278 276 274 266 262 260 260 266
132 126 120 117 125 136 157 162 170 177 160 183 163 178 170 196 233 257 278 289 310 296 294 291 289 283 281 278 275 272 275 272 269 267 267 264 267 269 268 268 256 257 261
128 117 109 101 93 94 99 104 120 110 97 105 121 100 94 71 6 8 355 333 314 317 302 296 284 280 277 277 277 276 276 274 276 279 280 278 277 270 267 261 264 259 261
134 122 110 99 93 89 86 85 82 83 84 92 93 82 66 54 40 27 6 353 336 321 311 304 302 306 312 314 305 301 298 294 284 279 275 275 275 275 269 264 267 261 258
139 122 115 103 96 92 92 90 86 83 80 78 75 68 56 43 28 8 350 339 332 319 316 308 302 298 294 292 290 289 286 285 283 283 278 274 269 272 268 261 256 260 260
150 140 129 118 111 106 99 90 82 78 77 74 65 51 33 14 355 343 330 319 313 305 302 299 297 294 294 291 294 296 296 291 287 284 279 271 265 252 256 266 267 264 261
152 140 134 128 118 110 102 100 90 75 68 62 50 22 351 334 326 316 314 308 300 297 294 292 291 289 280 284 287 283 279 282 283 280 276 271 265 257 248 250 254 253 262
158 154 148 136 126 116 120 105 93 79 48 15 352 331 321 313 307 301 296 291 290 289 281 277 280 283 283 282 280 278 276 277 277 278 279 278 275 268 269 266 261 256 252
160 156 146 140 135 128 111 106 82 28 1 334 324 321 315 309 306 303 298 294 290 288 286 282 280 280 281 282 283 280 276 271 270 270 272 274 276 276 276 277 279 275 271
157 155 152 142 138 135 108 45 343 352 331 319 323 321 315 311 309 304 302 299 297 293 289 285 284 283 283 283 284 278 277 273 270 270 271 271 271 271 278 282 277 271 266
140 141 139 128 128 100 58 335 325 333 329 334 320 318 315 307 302 302 301 302 296 293 294 288 284 286 287 282 280 279 271 272 277 278 276 275 273 274 277 272 270 273 273
142 127 130 127 99 105 19 330 334 328 335 320 310 305 303 300 298 301 306 304 300 298 298 296 296 292 290 292 289 289 282 276 281 282 286 284 284 284 282 280 274 272 279
120 122 131 119 113 54 351 325 316 323 312 307 303 300 302 306 305 301 301 301 303 303 302 301 303 305 303 295 300 298 293 287 280 280 284 285 289 291 290 287 281 281 280
119 115 118 117 108 348 338 309 310 315 309 305 304 307 307 305 306 308 308 306 303 300 301 303 303 303 305 306 308 304 301 290 283 284 289 295 295 289 289 287 285 287 280
139 131 131 323 320 326 316 305 315 310 310 307 308 309 309 311 311 312 305 301 304 307 307 307 305 302 301 297 295 291 289 294 294 293 286 284 289 292 285 286 280 274 274
134 122 12 332 319 319 311 314 315 316 309 309 308 311 310 315 310 305 303 301 299 307 306 303 304 302 298 300 306 309 307 299 288 295 289 284 285 288 287 283 273 269 271
111 31 339 313 308 307 306 313 315 315 314 312 313 313 312 312 305 306 307 301 300 302 303 301 298 295 298 305 308 311 312 313 312 303 296 293 292 289 288 293 295 299 298